Tracking 30160 objects as of 13-Feb-2025
HD Live streaming from Space Station
objects crossing your sky now

STARLINK-5226

Track STARLINK-5226 now!
10-day predictions
STARLINK-5226 is classified as:


NORAD ID: 54056
Int'l Code: 2022-136F
Perigee: 545.9 km
Apogee: 547.8 km
Inclination: 53.2 °
Period: 95.4 minutes
Semi major axis: 6917 km
RCS: Unknown
Launch date: October 20, 2022
Source: United States (US)
Launch site: AIR FORCE EASTERN TEST RANGE (AFETR)
Your satellite tracking list
Your tracking list is empty




NASA's NSSDC Master Catalog

Two Line Element Set (TLE):
1 54056U 22136F   25043.95759131 -.00002723  00000-0 -15296-3 0  9990
2 54056  53.2186 293.2802 0001388  96.3289 263.7861 15.08860108128012
Source of the keplerian elements: AFSPC